Home > Weather > Orkanger/Fannrem > Past weeks

Flag for Norway Weather for the Past 2 Weeks in Orkanger/Fannrem, Norway

Now
48 °F

Cool.


Feels Like: 46 °F
Forecast: 37 / 52 °F
Wind: 5 mph from Southeast

Location: Marstein

Current Time: Apr 30, 2016 at 7:47:46 AM

Latest Report: Apr 30, 2016 at 6:00 AM


Visibility: N/A

Pressure: 29.93 "Hg

Humidity: 44%

Dew Point: 27 °F

Location of Orkanger/FannremLocation

Historic Weather in Orkanger/Fannrem — Graph

°F

Orkanger/Fannrem Temperature Yesterday

Maximum temperature yesterday: 50 °F (at 7:00 PM)
Minimum temperature yesterday: 44 °F (at 1:00 PM)
Average temperature yesterday: 48 °F

High & Low Weather Summary for the Past Weeks

 TemperatureHumidityPressure
High52 °F (Apr 18, 1:00 PM)93% (Apr 23, 6:00 AM)30.31 "Hg (Apr 23, 6:00 AM)
Low29 °F (Apr 23, 6:00 AM)25% (Apr 17, 5:00 PM)29.26 "Hg (Apr 18, 1:00 PM)
Average41 °F61%29.78 "Hg
* Reported Apr 15 6:00 AM — Apr 30 6:00 AM, Orkanger/Fannrem, Weather by CustomWeather, © 2016

Note: Actual official high and low records may vary slightly from our data, if they occured in-between our weather recording intervals... More about our weather records

Advertising

Orkanger/Fannrem Weather History for the Previous 24 Hours

Scroll right to see more
 ConditionsComfort  
Time TempWeatherWind HumidityBarometerVisibility
6:00 AM
Sat, Apr 30
48 °FCool.5 mph44%29.93 "HgN/A
3:00 AM46 °FCool.10 mph55%29.91 "HgN/A
2:00 AM47 °FCool.9 mph45%29.91 "HgN/A
1:00 AM47 °FCool.6 mph39%29.93 "HgN/A
12:00 AM46 °FCool.9 mph39%29.91 "HgN/A
11:00 PM
Fri, Apr 29
47 °FCool.9 mph35%29.90 "HgN/A
10:00 PM47 °FCool.9 mph39%29.88 "HgN/A
9:00 PM48 °FCool.7 mph38%29.84 "HgN/A
8:00 PM49 °FCool.6 mph36%29.81 "HgN/A
7:00 PM50 °FCool.8 mph28%29.77 "HgN/A
6:00 PM49 °FCool.9 mph31%29.74 "HgN/A
5:00 PM48 °FCool.8 mph37%29.72 "HgN/A
4:00 PM48 °FCool.7 mph41%29.67 "HgN/A
3:00 PM48 °FCool.8 mph40%29.61 "HgN/A
2:00 PM50 °FCool.7 mph42%29.55 "HgN/A
1:00 PM44 °FQuite cool.5 mph65%29.53 "HgN/A
Weather by CustomWeather, © 2016

See weather overviewHow to use our weather pages